Flag for Italy Weather past 2 weeks in Bologna, Italy

Now
48 °F

Clear.


Feels Like: 45 °F
Forecast: 41 / 68 °F
Wind: 7 mph from Southwest

Location: Bologna / Borgo Panigale


UV Index: 5 (Moderate)

Visibility: 10 mi


Pressure: 29.98 "Hg

Humidity: 58%

Dew point: 34 °F

Location of BolognaLocation

Historic Weather in Bologna

°F

Bologna temperature yesterday

Maximum temperature yesterday: 61 °F (at 3:20 PM)
Minimum temperature yesterday: 43 °F (at 6:50 AM)
Average temperature yesterday: 52 °F

Past Weeks' High & Low Weather Summary

 TemperatureHumidityPressure
High77 °F (Apr 8, 3:20 PM)100% (Apr 4, 3:50 AM)30.18 "Hg (Apr 4, 3:50 AM)
Low41 °F (Apr 17, 5:20 AM)21% (Apr 16, 7:20 PM)29.65 "Hg (Apr 4, 1:20 PM)
Average58 °F70%29.97 "Hg
* Reported Apr 2 10:50 PM — Apr 17 10:20 PM, Bologna, Weather by CustomWeather, © 2014

Note: Actual official high and low records may vary slightly from our data, if they occured in-between our weather recording intervals... More about our weather records

Advertising

Historic Weather Conditions — Data for Previous 24 hours

 ConditionsComfort  
Time TempWeatherWind HumidityBarometerVisibility
10:20 PM
Apr 17
52 °FPassing clouds.3 mph47%29.98 "HgN/A
9:50 PM50 °FClear.3 mph54%29.98 "Hg10 mi
9:20 PM54 °FClear.6 mph44%29.95 "Hg10 mi
8:50 PM54 °FSunny.No wind44%29.95 "Hg10 mi
8:20 PM55 °FSunny.No wind36%29.95 "Hg10 mi
7:50 PM61 °FSunny.2 mph27%29.95 "Hg10 mi
6:50 PM66 °FSunny.1 mph22%29.95 "Hg10 mi
6:20 PM63 °FPassing clouds.3 mph30%29.98 "HgN/A
5:50 PM64 °FSunny.3 mph24%29.98 "Hg10 mi
5:20 PM64 °FPassing clouds.5 mph28%29.98 "HgN/A
4:50 PM64 °FSunny.5 mph26%29.98 "Hg10 mi
4:20 PM63 °FPassing clouds.5 mph25%29.98 "HgN/A
3:50 PM63 °FPassing clouds.7 mph32%30.01 "HgN/A
3:20 PM63 °FPassing clouds.6 mph30%30.01 "HgN/A
2:50 PM63 °FSunny.6 mph25%30.04 "Hg10 mi
2:20 PM61 °FSunny.6 mph29%30.04 "Hg10 mi
1:50 PM61 °FSunny.3 mph34%30.04 "Hg10 mi
1:20 PM61 °FSunny.5 mph31%30.07 "Hg10 mi
12:50 PM59 °FSunny.6 mph31%30.07 "Hg10 mi
12:20 PM59 °FPassing clouds.7 mph31%30.09 "HgN/A
11:50 AM59 °FPassing clouds.7 mph34%30.09 "HgN/A
11:20 AM57 °FPassing clouds.5 mph39%30.12 "HgN/A
10:50 AM57 °FSunny.2 mph39%30.12 "Hg10 mi
10:20 AM57 °FSunny.2 mph41%30.12 "Hg10 mi
9:50 AM54 °FPassing clouds.5 mph47%30.12 "HgN/A
9:20 AM52 °FPassing clouds.5 mph54%30.12 "HgN/A
8:50 AM50 °FPassing clouds.3 mph54%30.12 "HgN/A
8:20 AM46 °FPassing clouds.5 mph66%30.12 "HgN/A
7:50 AM45 °FSunny.5 mph66%30.12 "Hg10 mi
7:20 AM43 °FClear.6 mph71%30.12 "Hg10 mi
6:50 AM41 °FClear.8 mph76%30.12 "Hg10 mi
6:20 AM41 °FClear.5 mph70%30.12 "Hg10 mi
5:50 AM41 °FClear.5 mph70%30.12 "Hg10 mi
5:20 AM41 °FClear.6 mph76%30.12 "Hg10 mi
4:50 AM43 °FPassing clouds.7 mph71%30.12 "HgN/A
4:20 AM43 °FClear.1 mph71%30.12 "Hg10 mi
3:50 AM45 °FClear.2 mph61%30.12 "Hg10 mi
3:20 AM45 °FPassing clouds.5 mph61%30.12 "HgN/A
2:50 AM46 °FPassing clouds.6 mph57%30.12 "HgN/A
2:20 AM50 °FClear.7 mph50%30.12 "Hg10 mi
1:50 AM48 °FClear.7 mph54%30.15 "Hg10 mi
1:20 AM48 °FClear.7 mph58%30.15 "Hg10 mi
12:50 AM48 °FClear.2 mph54%30.15 "Hg10 mi
12:20 AM46 °FClear.5 mph57%30.15 "Hg10 mi
11:50 PM
Apr 16
46 °FClear.6 mph57%30.15 "Hg10 mi
11:20 PM46 °FClear.5 mph57%30.15 "Hg10 mi
Weather by CustomWeather, © 2014

See weather overview